Location: Blandford
(50.8667°N, 2.1667°W)
Time: 07:14:45
(UTC+00:00)

STARLINK-1216 - Visible Passes

Search period start: 11 August 2020 00:00
Search period end: 21 August 2020 00:00
Orbit: 549 x 550 km, 53.0° (Epoch: 11 August)

Date Brightness Start Highest point End Pass type
(mag) Time Alt. Az. Time Alt. Az. Time Alt. Az.
11 Aug 4.0 20:21:17 10° W 20:25:26 69° N 20:29:35 10° ENE visible
11 Aug 3.7 22:01:06 10° WNW 22:05:15 73° NNE 22:07:16 29° E visible
11 Aug 5.1 23:40:47 10° WNW 23:42:53 27° W 23:42:53 27° W visible
12 Aug 4.0 20:15:50 10° W 20:19:59 65° N 20:24:06 10° ENE visible
12 Aug 3.6 21:55:37 10° WNW 21:59:47 80° NNE 22:01:32 34° E visible
12 Aug 5.4 23:35:21 10° WNW 23:37:09 22° W 23:37:09 22° W visible
13 Aug 4.0 20:10:23 10° W 20:14:31 64° N 20:18:39 10° E visible
13 Aug 3.5 21:50:08 10° WNW 21:54:18 89° NE 21:55:50 38° ESE visible
13 Aug 5.6 23:29:57 10° W 23:31:28 19° W 23:31:28 19° W visible
14 Aug 4.0 20:04:56 10° W 20:09:04 63° N 20:13:11 10° E visible
14 Aug 3.5 21:44:38 10° WNW 21:48:48 80° SSW 21:50:11 41° ESE visible
14 Aug 5.8 23:24:37 10° W 23:25:48 16° W 23:25:48 16° W visible
15 Aug 3.6 21:39:09 10° WNW 21:43:17 69° SSW 21:44:34 41° SE visible
15 Aug 6.0 23:19:22 10° W 23:20:11 13° W 23:20:11 13° W visible
16 Aug 3.8 21:33:41 10° WNW 21:37:46 57° SSW 21:38:58 40° SSE visible
16 Aug 6.2 23:14:17 10° W 23:14:36 11° WSW 23:14:36 11° WSW visible
17 Aug 4.1 21:28:13 10° WNW 21:32:13 47° SSW 21:33:25 35° SSE visible
18 Aug 4.4 21:22:47 10° WNW 21:26:39 38° SW 21:27:55 30° S visible
19 Aug 4.8 21:17:23 10° W 21:21:03 31° SW 21:22:27 25° S visible
20 Aug 5.1 21:12:03 10° W 21:15:27 25° SW 21:17:03 20° S visible
